OK2AF-5 Weather Reports


time (UTC)temp
C
wind
direction
speed
KPH
gust
KPH
rain 1hr
cm
rain 24hr
cm
rain mn
cm
humidity
%
barometer
mb
20260506002611 -17 315 1.6 8.0 0.00 0.00 0.00 1005.1
20260506001711 -17 315 6.4 8.0 0.00 0.00 0.00 1004.9
20260506000816 -17 0 4.8 8.0 0.00 0.00 0.00 1004.7
20260505235916 -17 0 3.2 6.4 0.00 0.00 0.00 1004.9
20260505235021 -17 270 1.6 3.2 0.00 0.00 0.00 1004.9
20260505234127 -17 270 1.6 4.8 0.00 0.00 0.00 1004.8
20260505233234 -17 203 3.2 3.2 0.00 0.00 0.00 1004.7
20260505232339 -17 225 3.2 22.5 0.00 0.00 0.00 1004.6
20260505231445 -17 270 3.2 12.9 0.00 0.00 0.00 1004.5
20260505230550 -17 180 6.4 12.9 0.00 0.00 0.00 1004.3
20260505225633 -17 225 3.2 9.7 0.00 0.00 0.00 1004.3
20260505224734 -17 180 4.8 14.5 0.00 0.00 0.00 1004.3
20260505223839 -17 225 6.4 20.9 0.00 0.00 0.00 1004.2
20260505222946 -17 180 8.0 14.5 0.00 0.00 0.00 1003.9
20260505222051 -17 180 16.1 19.3 0.00 0.00 0.00 1004.0
20260505221159 -17 203 8.0 11.3 0.00 0.00 0.00 1004.0
20260505220304 -17 180 3.2 11.3 0.00 0.00 0.00 1003.8
20260505215411 -17 180 8.0 9.7 0.00 0.00 0.00 1004.0
20260505214518 -17 135 3.2 9.7 0.00 0.00 0.00 1003.9
20260505213623 -17 203 8.0 11.3 0.00 0.00 0.00 1004.0
20260505212728 -17 180 1.6 6.4 0.00 0.00 0.00 1003.9
20260505211833 -17 135 3.2 11.3 0.00 0.00 0.00 1003.9
20260505210936 -17 135 8.0 14.5 0.00 0.00 0.00 1003.8
20260505210044 -17 135 12.9 16.1 0.00 0.00 0.00 1003.8
20260505205150 -17 180 3.2 14.5 0.00 0.00 0.00 1003.9
20260505204257 -17 180 8.0 14.5 0.00 0.00 0.00 1003.8
20260505203402 -17 180 6.4 16.1 0.00 0.00 0.00 1003.8
20260505202509 -17 180 17.7 20.9 0.00 0.00 0.00 1003.7
20260505201611 -17 180 9.7 17.7 0.00 0.00 0.00 1003.7
20260505200717 -17 158 8.0 11.3 0.00 0.00 0.00 1003.7
20260505195816 -17 180 6.4 14.5 0.00 0.00 0.00 1003.6
20260505194915 -17 180 4.8 20.9 0.00 0.00 0.00 1003.7
20260505194013 -17 180 6.4 9.7 0.00 0.00 0.00 1003.7
20260505193113 -17 180 9.7 16.1 0.00 0.00 0.00 1003.5
20260505192212 -17 180 11.3 19.3 0.00 0.00 0.00 1003.4
20260505191312 -17 180 6.4 16.1 0.00 0.00 0.00 1003.4
20260505190412 -17 225 16.1 22.5 0.00 0.00 0.00 1003.2
20260505185511 -17 225 8.0 25.7 0.00 0.00 0.00 1003.0
20260505184610 -17 135 9.7 17.7 0.00 0.00 0.00 1002.9
20260505183709 -17 180 16.1 22.5 0.00 0.00 0.00 1002.8
20260505182808 -17 135 11.3 19.3 0.00 0.00 0.00 1002.7
20260505181908 -17 203 6.4 17.7 0.00 0.00 0.00 1002.9
20260505181002 -17 203 3.2 4.8 0.00 0.00 0.00 1003.1
20260505175200 -17 270 0.0 6.4 0.00 0.00 0.00 1003.1
20260505174257 -17 225 1.6 4.8 0.00 0.00 0.00 1003.0
20260505173357 -17 225 3.2 3.2 0.00 0.00 0.00 1003.0
20260505172453 -17 225 1.6 1.6 0.00 0.00 0.00 1002.9
20260505171551 -17 225 0.0 1.6 0.00 0.00 0.00 1002.8
20260505170650 -17 225 0.0 1.6 0.00 0.00 0.00 1002.6
20260505165750 -17 180 0.0 6.4 0.00 0.00 0.00 1002.6
20260505164848 -17 180 3.2 11.3 0.00 0.00 0.00 1002.4
20260505163948 -17 180 3.2 6.4 0.00 0.00 0.00 1002.5
20260505163047 -17 180 4.8 9.7 0.00 0.00 0.00 1002.6
20260505162146 -17 135 8.0 20.9 0.00 0.00 0.00 1002.6
20260505161246 -17 180 14.5 25.7 0.00 0.00 0.00 1002.6
20260505160346 -17 203 14.5 24.1 0.00 0.00 0.00 1002.5
20260505152742 -17 180 12.9 30.6 0.00 0.00 0.00 1002.2
20260505151841 -17 225 16.1 29.0 0.00 0.00 0.00 1002.4
20260505150941 -17 180 14.5 30.6 0.00 0.00 0.00 1002.5
20260505140633 -17 203 19.3 27.4 0.00 0.00 0.00 1003.3
20260505124539 -17 270 3.2 17.7 0.00 0.00 0.00 1003.9
20260505123645 -17 225 4.8 20.9 0.00 0.00 0.00 1004.1
20260505122746 -17 270 8.0 27.4 0.00 0.00 0.00 1004.3
20260505121851 -17 180 11.3 25.7 0.00 0.00 0.00 1004.5
20260505120955 -17 180 24.1 25.7 0.00 0.00 0.00 1004.6
20260505120057 -17 203 9.7 19.3 0.00 0.00 0.00 1004.5
20260505115201 -17 135 8.0 24.1 0.00 0.00 0.00 1004.5
20260505114306 -17 158 14.5 22.5 0.00 0.00 0.00 1004.8
20260505113409 -17 248 9.7 22.5 0.00 0.00 0.00 1004.7
20260505112514 -17 180 4.8 33.8 0.00 0.00 0.00 1004.9
20260505111619 -17 270 8.0 22.5 0.00 0.00 0.00 1004.8
20260505110722 -17 225 4.8 25.7 0.00 0.00 0.00 1005.1
20260505101347 -17 180 12.9 24.1 0.00 0.00 0.00 1005.6
20260505100452 -17 180 11.3 25.7 0.00 0.00 0.00 1005.6
20260505095557 -17 180 16.1 20.9 0.00 0.00 0.00 1005.6
20260505094705 -17 135 12.9 24.1 0.00 0.00 0.00 1005.7
20260505093808 -17 135 11.3 24.1 0.00 0.00 0.00 1005.9
20260505092913 -17 135 17.7 20.9 0.00 0.00 0.00 1005.8
20260505092018 -17 180 9.7 20.9 0.00 0.00 0.00 1006.1
20260505091122 -17 135 9.7 17.7 0.00 0.00 0.00 1006.2
20260505090228 -17 270 4.8 17.7 0.00 0.00 0.00 1006.1
20260505085332 -17 180 6.4 20.9 0.00 0.00 0.00 1006.1
20260505084437 -17 180 17.7 22.5 0.00 0.00 0.00 1006.3
20260505083540 -17 135 9.7 17.7 0.00 0.00 0.00 1006.4
20260505082645 -17 135 4.8 19.3 0.00 0.00 0.00 1006.4
20260505081752 -17 135 11.3 22.5 0.00 0.00 0.00 1006.6
20260505080856 -17 180 4.8 16.1 0.00 0.00 0.00 1006.7
20260505080001 -17 158 8.0 20.9 0.00 0.00 0.00 1007.1
20260505075106 -17 180 14.5 24.1 0.00 0.00 0.00 1006.9
20260505074211 -17 180 12.9 19.3 0.00 0.00 0.00 1006.9
20260505073315 -17 180 6.4 20.9 0.00 0.00 0.00 1007.1
20260505072422 -17 180 11.3 19.3 0.00 0.00 0.00 1007.2
20260505071526 -17 225 4.8 12.9 0.00 0.00 0.00 1007.4
20260505070631 -17 180 6.4 22.5 0.00 0.00 0.00 1007.6
20260505065737 -17 180 19.3 22.5 0.00 0.00 0.00 1007.6
20260505064842 -17 180 19.3 25.7 0.00 0.00 0.00 1007.5
20260505063948 -17 203 17.7 25.7 0.00 0.00 0.00 1007.6
20260505063052 -17 180 17.7 27.4 0.00 0.00 0.00 1007.5
20260505062157 -17 180 11.3 29.0 0.00 0.00 0.00 1007.5
20260505061258 -17 180 8.0 24.1 0.00 0.00 0.00 1007.5
20260505060405 -17 225 6.4 22.5 0.00 0.00 0.00 1007.6
20260505055511 -17 158 12.9 22.5 0.00 0.00 0.00 1007.7
20260505054615 -17 180 4.8 17.7 0.00 0.00 0.00 1007.7
20260505053719 -17 180 6.4 9.7 0.00 0.00 0.00 1007.8
20260505052825 -17 135 6.4 9.7 0.00 0.00 0.00 1008.1
20260505051929 -17 180 0.0 4.8 0.00 0.00 0.00 1008.5
20260505051033 -17 180 1.6 6.4 0.00 0.00 0.00 1008.9
20260505050138 -17 180 3.2 4.8 0.00 0.00 0.00 1009.3
20260505041701 -17 270 0.0 0.0 0.00 0.00 0.00 1009.9
20260505040807 -17 270 0.0 3.2 0.00 0.00 0.00 1009.9
20260505035911 -17 270 0.0 1.6 0.00 0.00 0.00 1010.0
20260505035014 -17 270 0.0 1.6 0.00 0.00 0.00 1009.9
20260505034120 -17 270 3.2 3.2 0.00 0.00 0.00 1010.0
20260505033225 -17 270 0.0 0.0 0.00 0.00 0.00 1010.1
20260505032329 -17 270 0.0 3.2 0.00 0.00 0.00 1010.2
20260505031435 -17 270 0.0 3.2 0.00 0.00 0.00 1010.1
20260505030536 -17 0 0.0 4.8 0.00 0.00 0.00 1010.1
20260505025643 -17 0 0.0 3.2 0.00 0.00 0.00 1010.2
20260505024749 -17 0 0.0 3.2 0.00 0.00 0.00 1010.2
20260505023855 -17 0 3.2 3.2 0.00 0.00 0.00 1010.5
20260505023001 -17 270 1.6 4.8 0.00 0.00 0.00 1010.4
20260505022109 -17 0 4.8 6.4 0.00 0.00 0.00 1010.5
20260505021213 -17 225 4.8 6.4 0.00 0.00 0.00 1010.3
20260505020319 -17 0 1.6 4.8 0.00 0.00 0.00 1010.5
20260505015424 -17 315 0.0 4.8 0.00 0.00 0.00 1010.4
20260505014529 -17 315 1.6 3.2 0.00 0.00 0.00 1010.4
20260505013635 -17 315 3.2 8.0 0.00 0.00 0.00 1010.4
20260505012741 -17 0 4.8 9.7 0.00 0.00 0.00 1009.9
20260505011847 -17 225 3.2 3.2 0.00 0.00 0.00 1010.1
20260505010953 -17 225 0.0 0.0 0.00 0.00 0.00 1010.3
20260505010058 -17 225 0.0 0.0 0.00 0.00 0.00 1010.2
20260505005204 -17 225 0.0 0.0 0.00 0.00 0.00 1010.2
20260505004306 -17 225 0.0 0.0 0.00 0.00 0.00 1010.2
20260505003411 -17 225 0.0 0.0 0.00 0.00 0.00 1010.4